When you browse on this site, cookies collect data to enhance your experience and personalize the content and advertising you see.
Visit our Privacy Policy to learn more. By continuing to use the site, you agree to this use of cookies and data.
  • En España
  • Lista de países
  • Para 7 días
  • Temperatura del agua
  • Mapa Satelital
  • El tiempo en el mapa
  • Informadores
  • user-avatar
    Iniciar sesión

    Tiempo cada hora Al-Hasaka

    Hoy, 18 Febrero, Lunes

    Tiempo Temperatura Precipitaciones Viento Presión Humedad
    00:00 +10°C° 0 mm 2 mps 735 mmHg 61%
    01:00 +11°C° 0 mm 1 mps 735 mmHg 63%
    02:00 +10°C° 0 mm 1 mps 735 mmHg 65%
    03:00 +10°C° 0 mm 1 mps 734 mmHg 65%
    04:00 +9°C° 0 mm 1 mps 734 mmHg 66%
    05:00 +9°C° 0 mm 1 mps 734 mmHg 67%
    06:00 +8°C° 0 mm 0 mps 734 mmHg 68%
    07:00 +9°C° 0 mm 1 mps 734 mmHg 64%
    08:00 +10°C° 0 mm 1 mps 734 mmHg 59%
    09:00 +11°C° 0 mm 1 mps 735 mmHg 55%
    10:00 +12°C° 0 mm 1 mps 734 mmHg 51%
    11:00 +13°C° 0 mm 1 mps 734 mmHg 48%
    12:00 +14°C° 0 mm 1 mps 734 mmHg 44%
    13:00 +14°C° 0 mm 2 mps 733 mmHg 41%
    14:00 +15°C° 0 mm 2 mps 733 mmHg 38%
    15:00 +14°C° 0 mm 3 mps 732 mmHg 35%
    16:00 +14°C° 0 mm 3 mps 732 mmHg 36%
    17:00 +13°C° 0 mm 3 mps 732 mmHg 38%
    18:00 +14°C° 0 mm 2 mps 731 mmHg 40%
    19:00 +12°C° 0 mm 3 mps 731 mmHg 42%
    20:00 +12°C° 0 mm 3 mps 731 mmHg 45%
    21:00 +11°C° 0 mm 3 mps 731 mmHg 47%
    22:00 +11°C° 0 mm 3 mps 731 mmHg 49%
    23:00 +10°C° 0 mm 3 mps 731 mmHg 52%

    Mañana, 19 Febrero, Martes

    Tiempo Temperatura Precipitaciones Viento Presión Humedad
    00:00 +10°C° 0 mm 3 mps 731 mmHg 54%
    01:00 +9°C° 0 mm 3 mps 731 mmHg 56%
    02:00 +9°C° 0 mm 3 mps 731 mmHg 58%
    03:00 +9°C° 0 mm 3 mps 731 mmHg 60%
    04:00 +8°C° 0 mm 3 mps 731 mmHg 60%
    05:00 +8°C° 0 mm 3 mps 731 mmHg 60%
    06:00 +8°C° 0 mm 3 mps 731 mmHg 59%
    07:00 +8°C° 0 mm 3 mps 732 mmHg 56%
    08:00 +9°C° 0 mm 3 mps 732 mmHg 52%
    09:00 +9°C° 0 mm 3 mps 733 mmHg 49%
    10:00 +11°C° 0 mm 4 mps 733 mmHg 44%
    11:00 +12°C° 0 mm 4 mps 733 mmHg 39%
    12:00 +14°C° 0 mm 4 mps 733 mmHg 34%
    13:00 +14°C° 0 mm 4 mps 733 mmHg 32%
    14:00 +15°C° 0 mm 4 mps 733 mmHg 30%
    15:00 +17°C° 0 mm 4 mps 732 mmHg 28%
    16:00 +15°C° 0 mm 4 mps 733 mmHg 31%
    17:00 +16°C° 0 mm 3 mps 733 mmHg 34%
    18:00 +14°C° 0 mm 3 mps 733 mmHg 37%
    19:00 +13°C° 0 mm 3 mps 733 mmHg 39%
    20:00 +12°C° 0 mm 3 mps 734 mmHg 42%
    21:00 +11°C° 0 mm 3 mps 734 mmHg 45%
    22:00 +11°C° 0 mm 3 mps 734 mmHg 46%
    23:00 +10°C° 0 mm 2 mps 735 mmHg 47%

    Pasado mañana, 20 Febrero, Miércoles

    Tiempo Temperatura Precipitaciones Viento Presión Humedad
    00:00 +9°C° 0 mm 2 mps 735 mmHg 47%
    01:00 +9°C° 0 mm 2 mps 735 mmHg 49%
    02:00 +8°C° 0 mm 2 mps 735 mmHg 50%
    03:00 +8°C° 0 mm 2 mps 735 mmHg 51%
    04:00 +8°C° 0 mm 2 mps 736 mmHg 52%
    05:00 +7°C° 0 mm 2 mps 736 mmHg 53%
    06:00 +7°C° 0 mm 2 mps 736 mmHg 54%
    07:00 +8°C° 0 mm 2 mps 736 mmHg 53%
    08:00 +8°C° 0 mm 2 mps 737 mmHg 51%
    09:00 +9°C° 0 mm 2 mps 737 mmHg 50%
    10:00 +10°C° 0 mm 2 mps 737 mmHg 46%
    11:00 +13°C° 0 mm 1 mps 737 mmHg 42%
    12:00 +14°C° 0 mm 1 mps 737 mmHg 38%
    13:00 +15°C° 0 mm 1 mps 737 mmHg 36%
    14:00 +14°C° 0 mm 0 mps 737 mmHg 33%
    15:00 +15°C° 0 mm 0 mps 736 mmHg 31%
    16:00 +14°C° 0 mm 0 mps 736 mmHg 34%
    17:00 +14°C° 0 mm 0 mps 736 mmHg 38%
    18:00 +13°C° 0 mm 0 mps 736 mmHg 42%
    19:00 +14°C° 0 mm 1 mps 736 mmHg 42%
    20:00 +13°C° 0 mm 1 mps 736 mmHg 43%
    21:00 +13°C° 0 mm 1 mps 737 mmHg 44%
    22:00 +12°C° 0 mm 1 mps 737 mmHg 45%
    23:00 +12°C° 0 mm 1 mps 737 mmHg 46%

    21 Febrero, Jueves

    Tiempo Temperatura Precipitaciones Viento Presión Humedad
    00:00 +11°C° 0 mm 1 mps 737 mmHg 47%
    01:00 +11°C° 0 mm 1 mps 736 mmHg 48%
    02:00 +10°C° 0 mm 1 mps 736 mmHg 49%
    03:00 +9°C° 0 mm 2 mps 736 mmHg 51%
    04:00 +10°C° 0 mm 1 mps 736 mmHg 52%
    05:00 +9°C° 0 mm 1 mps 736 mmHg 53%
    06:00 +9°C° 0 mm 1 mps 736 mmHg 55%
    07:00 +10°C° 0 mm 1 mps 736 mmHg 52%
    08:00 +11°C° 0 mm 1 mps 737 mmHg 48%
    09:00 +11°C° 0 mm 1 mps 737 mmHg 45%
    10:00 +12°C° 0 mm 1 mps 737 mmHg 42%
    11:00 +14°C° 0 mm 1 mps 737 mmHg 39%
    12:00 +15°C° 0 mm 1 mps 737 mmHg 36%
    13:00 +15°C° 0 mm 2 mps 737 mmHg 35%
    14:00 +16°C° 0 mm 2 mps 736 mmHg 35%
    15:00 +16°C° 0 mm 3 mps 736 mmHg 34%
    16:00 +16°C° 0 mm 2 mps 736 mmHg 37%
    17:00 +15°C° 0 mm 2 mps 736 mmHg 39%
    18:00 +15°C° 0 mm 2 mps 735 mmHg 42%
    19:00 +14°C° 0 mm 1 mps 736 mmHg 44%
    20:00 +14°C° 0 mm 1 mps 736 mmHg 46%
    21:00 +13°C° 0 mm 1 mps 736 mmHg 49%
    22:00 +12°C° 0 mm 1 mps 736 mmHg 49%
    23:00 +12°C° 0 mm 1 mps 736 mmHg 50%

    22 Febrero, Viernes

    Tiempo Temperatura Precipitaciones Viento Presión Humedad
    00:00 +12°C° 0 mm 1 mps 736 mmHg 51%
    01:00 +11°C° 0 mm 1 mps 736 mmHg 51%
    02:00 +11°C° 0 mm 1 mps 736 mmHg 51%
    03:00 +10°C° 0 mm 1 mps 736 mmHg 51%
    04:00 +10°C° 0 mm 1 mps 736 mmHg 51%
    05:00 +10°C° 0 mm 1 mps 736 mmHg 51%
    06:00 +9°C° 0 mm 1 mps 736 mmHg 51%
    07:00 +10°C° 0 mm 1 mps 736 mmHg 48%
    08:00 +11°C° 0 mm 1 mps 737 mmHg 45%
    09:00 +12°C° 0 mm 1 mps 737 mmHg 42%
    10:00 +13°C° 0 mm 1 mps 737 mmHg 40%
    11:00 +13°C° 0 mm 1 mps 737 mmHg 38%
    12:00 +13°C° 0 mm 0 mps 736 mmHg 36%
    13:00 +15°C° 0 mm 1 mps 736 mmHg 37%
    14:00 +15°C° 0 mm 1 mps 735 mmHg 37%
    15:00 +16°C° 0 mm 1 mps 735 mmHg 38%
    16:00 +15°C° 0 mm 2 mps 735 mmHg 42%
    17:00 +15°C° 0 mm 2 mps 735 mmHg 46%
    18:00 +14°C° 0 mm 2 mps 735 mmHg 49%
    19:00 +14°C° 0 mm 2 mps 735 mmHg 55%
    20:00 +13°C° 0 mm 2 mps 735 mmHg 61%
    21:00 +12°C° 0 mm 2 mps 735 mmHg 67%
    22:00 +12°C° 0 mm 2 mps 735 mmHg 68%
    23:00 +10°C° 0 mm 2 mps 735 mmHg 70%

    23 Febrero, Sábado

    Tiempo Temperatura Precipitaciones Viento Presión Humedad
    00:00 +11°C° 0 mm 1 mps 735 mmHg 71%
    01:00 +11°C° 0 mm 1 mps 735 mmHg 71%
    02:00 +10°C° 0 mm 1 mps 735 mmHg 72%
    03:00 +10°C° 0 mm 1 mps 735 mmHg 72%
    04:00 +10°C° 0 mm 1 mps 735 mmHg 71%
    05:00 +9°C° 0 mm 2 mps 735 mmHg 71%
    06:00 +8°C° 0 mm 2 mps 734 mmHg 70%
    07:00 +9°C° 0 mm 2 mps 735 mmHg 67%
    08:00 +10°C° 0 mm 2 mps 735 mmHg 64%
    09:00 +10°C° 0 mm 3 mps 735 mmHg 61%
    10:00 +12°C° 0 mm 3 mps 735 mmHg 57%
    11:00 +13°C° 0 mm 4 mps 735 mmHg 53%
    12:00 +14°C° 0 mm 4 mps 735 mmHg 50%
    13:00 +14°C° 0.9 mm 4 mps 734 mmHg 50%
    14:00 +14°C° 0.9 mm 4 mps 733 mmHg 50%
    15:00 +14°C° 0.9 mm 3 mps 733 mmHg 51%
    16:00 +14°C° 1.3 mm 3 mps 732 mmHg 55%
    17:00 +13°C° 1.3 mm 3 mps 732 mmHg 59%
    18:00 +14°C° 1.3 mm 2 mps 732 mmHg 62%
    19:00 +14°C° 0.9 mm 2 mps 732 mmHg 63%
    20:00 +14°C° 0.9 mm 2 mps 731 mmHg 64%
    21:00 +13°C° 0.9 mm 2 mps 731 mmHg 65%
    22:00 +12°C° 0.2 mm 3 mps 731 mmHg 67%
    23:00 +12°C° 0.2 mm 3 mps 731 mmHg 69%
    Mostrar más